Wind_Speed
10 10 10 10 10 9 10 10 10 10 9 9 9 9 9 9 9 10 9 9 10 10 10 10 10 9 9 10 10 11 10 10 11 10 10 10 10 9 8 7 7 7 6 6
11 11 11 11 11 10 10 10 10 10 9 10 9 10 10 10 10 10 10 10 10 11 11 11 10 10 10 10 10 10 10 11 11 10 10 10 10 9 8 7 8 7 6 6
12 12 12 11 11 11 10 10 10 10 10 9 9 10 10 10 10 10 10 11 11 11 11 11 11 10 10 11 11 10 10 10 10 10 11 10 10 9 8 7 7 7 6 6
13 13 12 12 12 11 10 10 10 10 10 10 11 10 11 11 10 10 10 11 11 11 11 11 11 11 11 11 11 11 11 11 11 11 11 10 10 9 8 7 7 7 6 6
13 13 13 13 12 12 11 11 10 10 10 10 10 10 10 11 11 10 11 11 11 11 11 11 11 11 11 11 11 11 11 11 11 11 10 10 10 9 9 8 8 7 7 7
14 14 14 13 13 13 12 11 11 10 10 11 9 10 9 11 10 11 11 11 11 11 11 11 11 11 11 11 11 11 12 12 11 11 11 10 10 10 10 10 9 8 8 8
15 15 15 14 14 13 13 12 12 12 12 11 10 10 9 10 11 11 11 11 11 11 11 11 11 12 11 11 11 12 12 12 12 11 11 11 11 11 11 11 10 9 9 8
16 16 15 15 15 15 14 14 14 14 14 12 11 10 9 10 10 11 11 10 10 11 11 11 12 12 12 12 12 12 12 12 12 12 12 12 12 12 12 11 11 10 10 9
16 17 16 16 16 16 15 15 15 15 14 13 12 10 9 10 10 10 11 11 11 11 11 11 12 12 12 12 12 11 11 12 13 13 13 14 13 12 12 11 11 10 10 9
17 17 17 17 16 16 16 16 16 16 15 14 12 11 10 10 10 10 10 10 11 10 11 11 11 11 11 12 12 11 12 12 13 13 13 13 13 12 11 11 11 11 11 10
18 18 18 18 18 17 17 17 17 17 16 15 13 12 11 11 10 10 10 10 10 10 10 10 10 10 11 11 12 12 12 12 12 12 12 11 11 11 11 11 11 11 11 11
17 18 19 19 19 18 19 19 19 18 18 16 15 13 12 12 11 11 11 11 11 11 11 11 11 11 11 11 11 12 11 11 12 11 11 11 11 11 11 11 11 11 11 11
19 18 19 19 20 20 20 20 20 20 19 18 16 14 13 13 12 12 12 12 12 11 12 11 12 11 11 11 11 12 12 12 11 11 12 11 12 12 11 11 11 11 11 11
20 20 21 21 21 21 21 21 21 21 21 19 18 16 15 14 14 13 13 12 12 12 12 11 11 12 12 11 11 12 13 13 12 12 12 12 12 12 11 12 12 12 13 12
20 20 21 21 22 22 21 22 21 21 21 20 18 17 16 16 15 14 14 13 13 12 12 12 12 12 12 12 12 12 12 13 13 13 12 13 13 12 12 12 12 13 13 13
20 20 20 21 22 23 23 22 22 22 21 20 19 17 17 17 16 16 15 14 14 13 13 13 13 13 13 13 12 12 12 12 13 13 13 13 13 13 13 13 13 13 14 14
20 20 21 21 21 23 23 22 21 21 21 21 20 18 18 18 17 17 16 15 15 15 14 13 13 14 14 14 13 13 13 13 13 13 13 13 13 13 12 12 13 13 14 14
21 21 20 21 21 22 21 21 21 21 21 21 20 20 20 19 18 17 17 16 16 15 15 14 14 14 14 14 14 14 14 14 14 14 14 14 14 13 13 13 13 13 13 14
22 22 22 22 22 22 21 21 21 21 21 21 21 21 22 21 19 18 17 17 16 16 15 15 15 15 15 15 15 14 14 14 14 14 14 14 14 14 14 14 14 14 14 15
23 22 23 23 23 22 21 21 21 21 21 21 22 22 22 21 20 19 18 18 17 16 16 16 16 16 16 16 16 15 15 15 15 15 15 15 15 15 15 16 15 15 16 16
23 23 23 23 23 22 22 21 21 21 21 22 23 22 22 22 21 20 19 19 18 17 17 17 16 16 16 16 17 17 16 16 16 16 16 16 16 16 16 17 17 16 16 16
22 24 24 24 24 23 22 21 21 21 21 22 23 23 23 22 22 22 21 20 19 18 18 17 17 17 17 17 18 18 17 17 17 17 17 17 17 17 18 18 18 18 18 18
23 24 25 25 24 23 22 22 22 22 22 21 21 23 24 23 23 22 22 21 20 20 19 19 18 18 18 18 18 19 18 18 17 17 18 18 18 18 18 18 18 18 19 19
24 24 25 25 24 24 23 23 23 23 22 22 21 21 22 22 22 22 22 22 21 21 20 20 20 19 19 19 19 19 19 19 18 18 18 18 18 18 19 19 19 20 20 21
25 25 25 25 23 23 23 23 23 23 23 23 22 22 22 22 22 22 23 23 23 22 21 21 21 20 20 20 20 20 20 20 20 19 19 19 19 19 19 20 20 21 21 22
25 25 26 25 24 23 23 23 24 24 24 24 24 24 24 24 23 23 24 24 24 24 23 22 22 22 21 21 21 21 21 21 21 21 21 21 21 21 21 21 22 22 22 23
Wind_Direction
243 241 238 234 232 234 234 235 238 239 240 241 241 241 244 245 244 243 239 235 233 233 235 236 235 235 238 239 238 236 235 234 233 229 227 224 230 235 239 244 247 247 250 259
242 242 239 237 237 237 236 235 238 240 242 243 243 244 244 244 242 241 239 235 233 233 235 239 238 240 238 238 236 234 234 233 230 229 225 225 229 235 239 243 248 248 248 255
241 241 241 239 237 239 238 236 238 242 245 249 250 248 248 247 244 240 240 238 235 235 237 237 238 238 238 236 233 233 230 228 228 229 227 229 232 235 240 243 249 255 254 251
238 238 240 240 240 238 239 241 242 243 244 249 252 251 247 249 246 239 238 239 237 238 237 236 239 238 237 234 231 236 233 232 232 234 233 235 237 234 238 244 249 255 258 262
237 236 237 239 239 238 238 241 245 247 248 249 250 250 247 249 247 243 241 239 237 239 237 238 239 235 234 236 236 236 236 233 235 238 236 236 239 238 241 245 249 252 256 263
236 235 235 235 235 235 236 241 244 246 249 249 249 249 243 246 246 246 242 239 240 239 238 237 235 236 237 238 237 236 236 236 237 237 236 239 242 244 244 247 250 255 255 260
234 234 234 233 232 233 235 239 244 246 248 250 250 250 246 246 245 244 243 240 241 239 236 237 236 234 237 238 238 237 236 236 236 238 239 241 244 244 247 250 253 255 252 255
236 235 235 234 233 233 235 239 241 244 244 247 249 250 248 246 247 245 242 239 238 237 238 239 238 235 236 237 237 238 235 234 236 240 241 242 245 247 251 251 253 254 251 252
234 234 234 236 236 236 237 238 241 243 245 248 248 247 246 247 248 244 240 239 239 239 238 239 238 237 236 235 235 237 235 235 237 241 242 244 247 250 252 252 251 255 254 255
233 236 235 236 234 235 238 239 237 240 244 248 250 247 245 247 248 244 240 238 238 238 236 234 234 237 236 234 234 236 238 240 241 241 243 246 246 248 250 252 251 253 255 257
232 235 235 235 234 233 234 236 237 240 243 244 248 247 244 246 247 243 240 240 239 239 236 234 233 233 234 235 235 238 239 240 240 241 242 245 246 249 250 252 253 251 253 256
233 236 237 236 234 234 236 237 238 240 242 244 246 246 246 247 246 244 240 238 238 241 239 238 238 236 236 237 236 238 239 240 242 243 246 251 251 254 255 255 255 255 255 257
234 235 237 238 237 236 237 237 238 240 242 243 244 245 247 247 245 244 243 240 239 241 242 243 240 237 237 238 239 239 240 241 242 244 248 252 254 256 255 256 257 257 259 259
237 236 235 237 239 239 238 239 238 239 242 244 244 242 244 246 244 242 241 240 239 239 242 244 242 238 238 239 240 240 240 242 243 244 248 252 254 257 257 257 259 260 260 260
237 239 239 238 238 240 240 239 238 239 241 242 241 239 239 242 241 240 242 242 242 241 242 244 244 241 239 240 240 241 242 242 243 245 249 252 253 257 262 262 262 264 264 262
238 241 240 240 240 241 241 239 237 239 240 241 239 237 237 238 237 238 241 244 245 245 244 244 242 241 241 242 242 242 245 244 245 247 250 252 253 257 262 265 266 267 268 266
239 242 242 243 243 243 241 238 238 240 239 239 239 236 235 235 235 235 237 240 243 245 244 243 241 241 242 243 244 244 246 248 249 251 253 256 255 259 263 267 269 270 270 269
237 240 242 243 243 245 242 242 241 241 240 239 238 235 233 234 234 234 235 237 240 243 244 243 243 243 243 245 246 246 247 249 251 253 256 259 258 259 261 265 268 272 274 273
239 241 242 244 244 245 244 243 241 241 239 238 236 235 234 233 233 233 235 237 240 243 245 245 243 244 245 246 247 247 249 251 251 254 257 259 257 259 261 263 268 271 275 277
240 240 242 244 245 245 244 243 242 241 238 236 235 233 233 234 231 231 233 236 240 242 244 244 242 244 245 246 246 247 249 251 252 255 257 257 259 261 264 264 267 272 275 277
240 238 239 241 244 245 244 244 242 241 239 236 234 233 233 233 231 230 231 234 239 241 243 243 243 244 245 246 247 248 250 251 252 254 257 259 262 263 264 265 267 270 273 278
242 239 238 240 243 244 243 244 242 240 238 237 235 234 233 234 232 231 230 233 237 240 242 243 244 246 248 249 249 250 251 252 255 256 258 260 262 264 264 265 267 269 273 278
242 242 241 242 242 243 242 241 241 239 237 234 235 235 233 233 233 230 231 234 237 239 241 243 245 247 249 250 251 251 252 254 256 259 260 262 263 265 266 268 269 270 273 278
242 243 243 243 241 242 241 239 237 236 237 236 234 232 232 231 231 231 233 235 237 240 241 243 245 247 250 250 250 251 254 256 259 262 264 264 265 266 267 269 271 275 279 280
241 243 242 242 243 242 241 239 237 236 236 235 232 231 232 233 234 234 234 235 238 241 242 244 246 248 250 249 249 252 255 257 260 262 263 264 266 267 269 271 274 277 280 282
238 241 242 243 242 243 240 240 240 238 237 233 230 230 232 234 235 236 236 238 240 242 243 245 246 249 250 250 250 253 255 258 260 263 264 266 268 268 269 271 274 276 279 281
Height
5858 5860 5860 5861 5862 5864 5865 5866 5866 5867 5868 5869 5869 5870 5870 5870 5871 5871 5872 5873 5873 5874 5875 5876 5876 5877 5878 5879 5880 5881 5882 5883 5883 5884 5885 5886 5887 5888 5889 5889 5889 5890 5890 5890
5856 5857 5858 5859 5860 5861 5862 5863 5864 5865 5866 5867 5867 5868 5868 5868 5869 5869 5870 5871 5872 5872 5873 5874 5875 5875 5876 5877 5878 5879 5880 5881 5882 5883 5884 5885 5886 5886 5887 5887 5888 5888 5888 5889
5853 5855 5855 5856 5857 5859 5860 5861 5862 5863 5864 5864 5865 5866 5866 5866 5866 5867 5868 5869 5870 5871 5872 5872 5873 5874 5874 5875 5876 5877 5878 5879 5880 5881 5882 5883 5884 5885 5886 5886 5887 5887 5887 5887
5849 5851 5852 5853 5855 5856 5858 5859 5860 5860 5861 5862 5864 5864 5864 5864 5864 5865 5866 5866 5867 5868 5869 5870 5871 5872 5873 5873 5874 5875 5876 5877 5879 5879 5880 5882 5882 5883 5884 5885 5885 5885 5885 5885
5846 5847 5849 5850 5852 5854 5855 5856 5857 5858 5859 5860 5861 5861 5862 5861 5862 5863 5863 5864 5865 5866 5867 5868 5869 5870 5871 5872 5873 5874 5875 5876 5877 5878 5879 5880 5881 5881 5882 5883 5883 5884 5884 5884
5842 5844 5845 5847 5849 5851 5852 5854 5854 5855 5856 5858 5858 5859 5860 5859 5860 5860 5861 5862 5863 5864 5865 5865 5867 5868 5869 5870 5871 5872 5873 5874 5875 5876 5877 5878 5878 5879 5880 5881 5881 5882 5882 5882
5838 5840 5842 5844 5846 5847 5849 5851 5852 5853 5854 5855 5856 5856 5858 5857 5857 5858 5859 5859 5860 5861 5862 5863 5864 5865 5866 5867 5868 5869 5870 5872 5873 5874 5875 5875 5876 5877 5878 5878 5879 5879 5879 5880
5835 5837 5838 5840 5842 5844 5846 5848 5850 5851 5851 5852 5853 5854 5856 5855 5855 5855 5856 5857 5857 5859 5860 5861 5862 5863 5864 5865 5866 5867 5868 5869 5870 5871 5872 5873 5874 5874 5875 5876 5876 5877 5877 5877
5831 5833 5835 5837 5839 5841 5842 5844 5846 5847 5848 5849 5850 5852 5853 5852 5852 5853 5853 5854 5855 5856 5857 5858 5859 5860 5861 5862 5863 5864 5865 5867 5868 5869 5869 5870 5871 5872 5873 5873 5874 5875 5875 5875
5826 5829 5831 5833 5835 5837 5839 5841 5842 5843 5844 5846 5848 5849 5850 5849 5850 5851 5851 5852 5853 5854 5855 5855 5856 5857 5858 5859 5861 5862 5863 5864 5865 5866 5867 5867 5868 5869 5870 5871 5871 5872 5872 5872
5821 5824 5827 5829 5830 5832 5835 5837 5838 5839 5841 5843 5845 5848 5847 5847 5847 5848 5849 5849 5850 5851 5852 5853 5854 5855 5856 5857 5858 5859 5860 5861 5862 5863 5864 5865 5865 5866 5867 5868 5868 5869 5869 5869
5816 5819 5821 5824 5827 5828 5830 5832 5834 5836 5837 5839 5841 5846 5843 5844 5844 5845 5846 5847 5848 5849 5850 5850 5851 5852 5853 5854 5855 5856 5857 5858 5859 5860 5861 5862 5863 5863 5864 5865 5865 5866 5866 5867
5811 5814 5817 5819 5823 5824 5825 5827 5829 5831 5833 5835 5837 5842 5840 5840 5841 5842 5843 5844 5845 5846 5847 5848 5848 5849 5850 5851 5852 5853 5855 5856 5857 5858 5858 5859 5860 5860 5861 5862 5862 5862 5863 5863
5806 5808 5812 5815 5816 5818 5820 5822 5824 5826 5828 5830 5833 5835 5836 5836 5837 5838 5839 5840 5841 5842 5844 5844 5845 5846 5847 5848 5850 5850 5852 5853 5854 5855 5855 5856 5857 5857 5858 5858 5859 5859 5859 5860
5800 5803 5806 5809 5811 5812 5814 5816 5818 5820 5823 5825 5828 5830 5831 5832 5833 5835 5835 5836 5838 5839 5840 5841 5842 5843 5844 5845 5847 5848 5848 5849 5851 5851 5852 5853 5854 5854 5854 5855 5855 5855 5856 5856
5795 5798 5800 5803 5804 5806 5808 5810 5812 5815 5817 5820 5822 5825 5826 5827 5829 5830 5832 5833 5834 5835 5837 5838 5839 5840 5841 5842 5843 5844 5845 5846 5847 5848 5849 5849 5850 5850 5851 5851 5851 5852 5852 5852
5790 5792 5795 5797 5799 5800 5802 5805 5807 5809 5812 5814 5816 5820 5821 5822 5824 5826 5827 5829 5830 5832 5833 5834 5835 5836 5837 5838 5840 5841 5842 5843 5843 5844 5845 5846 5846 5846 5847 5847 5848 5848 5848 5848
5785 5787 5789 5791 5793 5794 5799 5799 5801 5803 5806 5808 5810 5813 5815 5817 5819 5821 5823 5825 5826 5828 5829 5830 5831 5833 5834 5835 5836 5837 5838 5839 5840 5841 5841 5842 5842 5843 5843 5844 5844 5844 5844 5843
5778 5781 5783 5785 5787 5789 5792 5793 5795 5797 5800 5802 5804 5807 5809 5811 5814 5816 5818 5820 5822 5823 5825 5826 5827 5828 5830 5831 5832 5833 5834 5835 5836 5837 5837 5838 5838 5839 5839 5840 5840 5840 5839 5839
5773 5775 5777 5779 5781 5783 5787 5787 5789 5792 5794 5796 5798 5801 5803 5806 5809 5812 5813 5815 5817 5819 5820 5822 5823 5824 5826 5827 5828 5829 5830 5831 5832 5832 5833 5834 5834 5835 5835 5835 5835 5835 5835 5834
5766 5768 5770 5772 5774 5777 5780 5781 5783 5786 5789 5790 5791 5794 5797 5800 5803 5806 5807 5810 5812 5813 5815 5817 5818 5820 5821 5822 5823 5824 5825 5826 5827 5828 5829 5829 5830 5830 5830 5830 5830 5830 5830 5829
5760 5762 5764 5766 5768 5772 5773 5775 5777 5779 5781 5783 5785 5788 5791 5794 5796 5799 5802 5804 5806 5808 5810 5812 5813 5815 5816 5818 5819 5820 5821 5822 5822 5823 5824 5824 5825 5825 5825 5825 5825 5825 5824 5824
5753 5756 5757 5760 5763 5764 5766 5768 5770 5772 5774 5777 5779 5782 5785 5788 5791 5793 5796 5798 5801 5803 5805 5807 5808 5810 5811 5812 5814 5815 5816 5816 5817 5818 5818 5819 5819 5819 5819 5820 5819 5819 5819 5818
5747 5748 5750 5752 5755 5757 5759 5761 5763 5765 5768 5770 5773 5776 5779 5782 5785 5788 5790 5793 5795 5797 5799 5801 5803 5804 5806 5807 5808 5809 5810 5811 5812 5812 5813 5813 5813 5814 5814 5814 5813 5813 5813 5812
5740 5741 5743 5746 5748 5750 5752 5754 5757 5759 5761 5763 5766 5770 5773 5776 5779 5781 5784 5787 5789 5791 5793 5795 5796 5798 5799 5801 5802 5803 5804 5805 5806 5806 5807 5807 5808 5808 5808 5807 5807 5807 5806 5806
5732 5734 5737 5739 5742 5744 5746 5748 5750 5752 5754 5757 5760 5763 5766 5769 5772 5775 5777 5780 5782 5785 5786 5788 5790 5791 5793 5794 5796 5797 5798 5799 5800 5800 5801 5801 5801 5801 5801 5801 5801 5800 5800 5799